Location: Owatonna
(44.0840°N, 93.2260°W)
Time: 22:30:06
(UTC-05:00)

Tiangong 1 - Visible Passes

Search period start: 29 July 2016 00:00
Search period end: 08 August 2016 00:00
Orbit: 365 x 386 km, 42.8° (Epoch: 29 July)

Date Brightness Start Highest point End Pass type
(mag) Time Alt. Az. Time Alt. Az. Time Alt. Az.
02 Aug 3.6 05:16:08 10° S 05:17:24 12° SSE 05:18:41 10° ESE visible
04 Aug 3.0 04:47:14 14° S 04:48:31 18° SSE 04:50:41 10° ESE visible
05 Aug 1.8 05:19:27 11° SW 05:22:06 38° SSE 05:25:00 10° E visible
06 Aug 2.4 04:19:38 25° SSE 04:19:38 25° SSE 04:22:11 10° E visible
07 Aug 1.3 04:51:46 25° SW 04:53:15 49° SSE 04:56:14 10° E visible
